Dewpoint
26 23 21 23 23 22 22 21 19 17 17 15 13 14 14 15 16 18 25 34 44 45 45 43 42 43 43 44 43 42 41 40 39 38 37 36 35 35 35 35 34 35 35 36
22 20 21 22 23 23 23 20 15 16 15 13 12 11 12 13 12 14 17 28 44 42 41 41 41 42 42 43 43 41 40 40 39 38 36 35 34 33 33 33 33 34 34 35
19 20 21 20 20 19 17 13 12 11 12 13 12 11 11 13 13 13 15 24 43 41 41 40 41 41 41 42 41 41 40 39 39 38 37 35 33 31 30 30 31 32 33 33
17 17 15 13 12 13 10 12 11 12 10 8 13 9 11 13 13 12 11 14 40 42 40 40 40 40 40 41 41 41 40 40 39 38 35 33 31 28 28 28 29 30 31 32
14 15 14 13 12 11 8 12 14 12 11 10 9 10 7 11 11 12 12 13 29 43 41 39 39 39 40 41 42 41 40 39 37 37 34 32 32 30 28 28 28 28 29 30
18 19 16 15 14 14 13 12 11 12 11 7 7 9 8 10 11 13 19 28 31 42 40 39 39 40 42 42 40 39 37 35 34 34 33 31 29 29 27 27 27 27 29 29
17 15 16 16 14 14 11 10 8 8 9 8 10 9 9 12 21 23 32 40 41 41 39 39 41 41 40 39 37 36 33 31 32 32 31 29 28 27 27 27 27 27 27 27
1 1 9 10 10 8 8 10 10 8 8 8 11 10 12 20 23 26 38 41 41 39 41 42 42 40 38 36 35 33 31 29 30 30 29 27 27 27 28 28 28 27 26 26
2 0 6 8 7 13 13 10 13 12 13 13 11 13 15 25 27 30 38 40 40 41 42 42 41 39 37 35 33 32 31 30 29 28 27 27 27 27 27 28 28 26 27 26
18 17 17 16 16 14 14 16 13 15 10 9 11 11 11 25 26 29 32 35 39 41 41 41 40 38 37 35 33 32 31 30 29 29 28 28 27 28 27 27 26 26 26 26
23 21 18 20 16 14 16 14 16 17 16 14 19 22 25 29 35 34 34 33 37 39 40 40 39 38 37 36 34 32 30 29 29 28 28 27 27 26 26 25 25 25 26 26
26 25 20 17 19 18 18 16 16 13 14 25 24 21 32 31 35 34 36 37 38 41 41 42 39 38 37 36 34 31 30 28 28 28 28 27 27 26 24 24 25 26 25 27
29 26 22 18 18 19 17 16 16 26 28 23 21 23 30 33 36 38 37 37 36 36 38 40 40 38 38 37 35 31 29 28 28 28 27 27 27 25 25 25 26 26 26 26
32 27 27 22 20 20 20 20 20 19 24 24 24 22 24 25 29 34 36 37 37 36 35 34 39 38 38 37 36 31 29 28 28 28 28 27 27 26 26 27 27 27 25 24
31 25 25 27 29 27 24 23 21 19 19 22 23 23 23 24 26 31 32 31 31 32 34 35 36 38 38 38 36 31 29 29 28 28 28 28 28 28 28 27 26 26 25 24
31 26 28 26 27 27 26 25 23 22 20 19 18 17 19 22 27 32 30 30 30 29 29 27 29 39 38 38 36 31 29 29 29 28 28 30 29 29 28 26 26 25 25 25
26 27 26 21 25 26 22 26 25 23 22 20 17 19 20 18 20 28 30 37 39 40 39 30 37 39 38 38 36 31 30 31 29 29 30 29 29 29 28 26 25 24 24 25
26 27 28 22 23 14 17 23 25 22 21 22 21 21 21 26 34 36 37 36 38 40 40 38 39 40 39 39 36 33 30 30 30 30 29 28 28 28 28 27 26 25 24 24
29 28 23 20 17 18 19 18 19 19 19 25 26 27 32 37 37 37 38 37 38 41 42 39 40 40 40 39 36 32 31 31 29 29 28 27 27 27 28 27 25 24 23 24
26 31 26 23 18 12 17 22 26 22 17 32 30 30 31 31 25 29 37 36 38 40 40 39 39 42 41 39 35 33 31 31 29 29 29 27 26 25 27 27 26 24 23 25
17 20 21 23 21 22 25 28 27 16 16 33 34 34 33 28 29 33 38 38 40 42 42 40 40 41 41 38 36 33 32 31 30 30 29 27 26 26 27 27 26 25 26 26
17 18 19 22 18 18 31 28 23 25 34 34 33 31 32 32 35 34 35 36 38 40 40 39 38 40 40 38 36 34 32 32 30 28 27 26 26 26 28 28 30 29 27 25
18 24 20 23 25 32 34 32 33 32 29 33 31 32 33 33 33 34 35 35 36 39 39 35 37 38 38 38 36 33 32 30 29 28 27 27 27 28 29 30 28 26 25 23
17 19 24 23 30 31 33 35 35 33 32 31 34 32 30 31 30 28 34 35 35 38 39 34 35 35 35 35 33 31 31 30 29 29 29 29 28 27 27 26 25 25 24 24
20 21 24 28 29 31 33 33 30 25 26 26 27 28 28 29 28 27 31 35 37 39 35 33 34 34 33 31 30 31 31 31 30 30 30 29 27 24 25 24 24 24 25 24
23 28 27 26 27 28 23 23 23 24 23 23 26 25 29 32 32 33 34 36 38 40 37 33 32 33 30 30 29 30 31 31 31 30 28 26 23 23 23 23 24 25 24 25
Wind_Speed
6 8 17 20 23 24 16 20 22 13 15 16 20 23 22 21 10 20 24 24 27 27 21 25 26 26 26 24 24 25 25 21 20 19 18 14 14 11 10 10 10 11 11 11
4 16 22 20 21 22 23 21 18 14 7 15 24 35 19 18 21 14 21 20 16 19 26 28 30 28 29 27 25 25 25 23 19 16 13 10 12 8 10 9 10 10 10 11
12 12 9 9 11 11 15 10 13 18 10 6 12 31 18 8 15 15 17 22 23 33 34 31 31 30 27 28 26 25 24 23 21 18 17 15 13 11 7 8 9 8 10 10
10 8 4 10 13 6 19 8 16 12 11 15 5 30 24 22 25 26 26 18 30 31 28 27 30 30 30 27 23 22 22 21 19 20 18 21 13 14 6 10 9 9 10 11
10 10 16 16 18 10 26 19 17 11 12 10 18 13 35 4 20 31 32 31 24 36 37 38 36 34 28 24 22 20 20 21 19 20 24 21 18 13 15 14 14 11 10 10
18 7 8 12 19 14 19 12 19 10 9 23 32 15 28 21 22 22 24 20 20 37 31 27 26 27 24 22 22 22 22 20 21 21 22 24 24 22 19 16 16 13 10 9
18 22 20 23 28 19 18 13 14 10 12 28 26 15 28 24 9 8 6 4 13 25 30 30 29 25 24 23 24 23 25 21 21 22 22 23 25 24 23 20 17 16 13 10
12 38 4 2 8 12 23 12 14 13 23 29 15 13 13 14 18 11 18 24 24 25 21 24 25 27 25 25 24 24 25 24 21 21 21 21 22 20 19 18 18 16 14 13
11 20 30 16 22 18 24 19 14 17 21 22 17 14 14 3 2 3 13 22 27 29 29 30 25 23 21 23 25 26 25 22 22 21 20 21 21 21 20 18 17 16 14 12
3 10 21 25 13 14 13 6 10 9 13 26 9 11 12 4 9 13 12 7 5 14 19 19 22 25 24 24 22 21 22 25 23 22 20 19 21 19 19 19 19 18 15 14
15 8 10 18 8 3 8 8 5 5 8 12 11 8 6 8 6 6 9 11 12 7 8 16 17 22 24 22 23 23 22 23 23 22 20 20 19 20 20 20 19 18 17 17
30 15 28 35 33 27 21 23 15 14 10 5 8 13 7 9 8 12 8 5 7 7 5 4 12 20 24 26 23 24 23 25 25 22 20 20 20 20 21 21 19 18 18 15
7 5 14 16 15 11 15 20 20 3 3 14 13 7 6 12 5 10 5 4 9 11 9 11 17 23 27 26 26 26 25 25 24 22 25 21 21 22 21 19 18 18 18 17
21 27 27 27 23 18 16 15 17 12 7 5 15 18 26 15 8 9 8 13 5 1 15 20 20 25 25 27 25 25 25 26 25 23 24 25 22 20 20 17 17 16 15 18
6 24 32 30 25 23 20 26 28 24 21 16 18 23 38 18 20 12 10 15 22 19 23 32 26 28 26 24 23 23 25 26 26 26 26 25 26 22 18 16 14 16 16 14
10 15 20 33 27 25 30 38 31 29 31 24 26 37 26 17 18 17 27 20 22 27 30 33 33 28 26 28 28 27 26 25 24 24 21 20 21 27 22 20 15 15 16 14
14 13 10 8 7 8 15 32 24 29 26 23 27 33 22 15 15 12 17 10 5 6 12 17 22 28 29 30 30 30 28 25 25 25 23 23 22 21 22 20 18 15 18 16
26 23 11 10 6 17 10 6 21 25 23 16 20 23 18 7 8 11 4 3 2 2 5 7 10 18 25 25 25 25 26 27 27 25 25 24 23 21 21 20 18 17 16 17
28 26 12 9 13 16 19 19 10 14 7 7 15 8 5 12 6 5 2 5 5 5 4 4 2 14 21 23 27 28 25 26 25 25 25 25 25 23 21 20 19 17 17 16
8 26 26 10 9 9 6 2 9 1 6 11 9 11 10 13 6 4 3 4 2 2 2 5 11 8 22 22 26 29 28 27 27 25 25 24 23 24 23 21 20 18 17 17
12 10 13 15 9 9 8 7 4 7 7 2 12 5 5 3 4 5 6 3 3 5 5 3 3 9 18 24 27 27 26 27 23 22 23 22 21 22 21 19 19 17 16 17
8 8 5 5 6 7 7 6 1 3 5 7 7 7 8 8 10 7 5 1 1 2 3 4 9 15 15 21 23 23 23 22 23 23 23 23 22 21 20 22 17 15 19 21
6 5 8 8 4 6 4 15 16 6 4 11 9 9 15 15 13 11 8 7 5 4 6 7 14 19 16 19 21 23 20 24 24 23 23 22 22 20 21 20 18 20 20 19
9 16 8 16 7 11 9 13 25 15 14 10 15 13 16 18 13 12 12 10 3 2 8 13 16 19 18 17 18 20 24 25 25 24 23 22 21 19 17 17 19 20 20 19
20 15 10 11 20 20 16 22 23 6 8 7 9 8 10 16 16 16 14 13 11 7 9 16 19 20 19 19 21 23 23 24 23 22 22 21 18 21 18 17 18 18 17 23
7 9 7 5 24 20 11 9 7 8 10 5 7 7 12 16 19 16 16 16 14 14 14 16 12 19 19 21 21 22 23 24 24 22 20 20 19 17 16 17 11 12 21 19
Wind_Direction
238 230 237 238 237 248 263 269 271 279 300 310 299 289 289 292 241 234 209 192 192 183 162 156 152 152 150 148 143 142 141 143 137 132 131 130 130 119 103 98 92 88 85 93
238 247 247 246 245 245 257 263 276 297 304 305 296 291 277 271 275 259 245 230 185 150 156 157 159 157 156 151 152 152 150 151 150 146 143 132 136 120 117 107 91 90 91 93
222 249 298 259 264 259 250 262 281 285 305 283 286 287 291 264 278 280 258 221 179 172 167 162 163 163 155 156 160 161 160 161 159 148 131 120 107 115 113 111 105 90 91 92
248 265 300 335 310 292 293 229 277 282 306 294 178 284 277 278 283 285 277 227 186 181 168 163 164 163 164 164 161 160 163 159 156 151 149 151 148 147 156 141 126 110 107 102
249 274 284 289 282 267 277 275 265 263 267 301 256 241 274 291 275 271 271 271 199 182 173 171 171 163 163 157 156 159 158 158 162 164 161 155 151 148 144 138 132 124 114 112
260 244 243 258 274 271 277 279 269 254 246 266 265 235 272 278 275 282 280 266 209 175 174 166 159 152 154 152 154 155 151 154 153 153 152 155 153 148 148 150 144 140 127 119
288 273 267 258 270 282 283 288 281 264 236 248 271 237 245 272 228 234 212 137 153 160 159 155 152 152 153 162 153 148 146 150 156 158 162 160 156 155 159 159 153 149 143 136
274 299 178 75 226 276 278 237 246 266 264 268 248 239 239 224 220 207 172 158 150 152 150 150 159 160 163 155 152 152 149 148 148 152 157 156 153 156 159 158 157 156 153 149
293 264 303 301 280 257 272 250 250 271 266 263 253 270 287 301 103 108 169 162 166 161 161 161 158 160 160 161 164 159 152 154 150 150 154 158 158 158 159 148 150 153 149 147
320 311 297 308 312 276 237 275 284 265 263 258 250 250 249 181 130 93 93 75 178 163 159 167 162 163 164 172 166 157 158 161 156 153 155 159 155 146 142 144 151 152 151 140
307 253 261 319 273 319 325 283 285 292 261 264 270 246 324 324 3 90 82 73 69 80 164 168 169 172 173 170 162 160 160 156 157 158 154 154 149 141 140 147 152 149 143 136
288 274 274 266 268 266 260 268 255 242 241 224 244 258 305 345 86 78 73 32 4 104 78 230 206 178 179 174 166 166 165 161 164 157 152 153 145 140 145 148 148 143 137 127
334 276 288 274 272 245 245 252 258 184 87 233 245 245 176 66 52 0 12 22 21 348 288 209 201 195 184 180 172 171 166 162 162 154 151 150 149 149 148 144 139 136 134 128
286 266 256 264 269 297 285 285 290 271 218 228 231 263 268 297 272 233 269 286 161 193 296 288 208 199 194 182 174 170 165 162 160 157 153 152 147 144 141 134 132 129 130 130
245 259 255 255 252 263 272 279 273 274 271 252 267 243 257 240 242 226 194 240 270 240 212 231 238 206 188 182 176 172 167 165 163 159 158 158 147 137 131 129 132 129 128 129
303 272 264 253 247 252 260 253 252 262 266 271 269 268 266 254 223 187 238 241 249 270 255 239 226 203 188 180 181 173 165 164 160 158 156 149 149 141 146 144 146 136 131 140
271 272 279 281 258 287 269 252 247 255 257 250 255 256 275 260 247 215 219 180 189 326 344 267 197 191 184 184 178 172 166 157 156 154 151 149 151 150 149 147 148 155 149 153
252 253 268 270 279 266 262 257 218 234 246 249 254 259 272 228 137 133 175 174 110 323 9 20 211 203 196 175 166 158 157 158 157 156 153 152 154 154 149 149 154 161 163 162
231 244 255 241 252 279 301 276 245 238 272 297 282 232 150 137 115 105 80 46 86 39 349 335 265 206 175 166 160 155 155 157 157 161 160 161 158 159 158 162 164 166 167 166
245 231 228 215 233 255 177 107 313 110 265 359 348 150 153 141 178 225 203 148 124 68 60 342 330 179 156 154 157 157 159 161 166 166 165 163 159 162 168 166 166 168 174 169
316 283 267 238 250 264 277 322 347 256 266 89 86 73 159 150 190 180 186 204 234 254 253 246 106 173 168 151 155 164 163 168 162 159 156 158 164 161 162 159 164 167 165 156
303 314 296 257 245 282 240 342 162 230 156 156 145 156 266 200 176 165 163 220 293 233 236 233 144 129 131 145 150 157 163 156 153 154 155 160 160 153 153 155 152 162 156 152
314 346 295 277 303 360 22 295 326 238 185 211 215 210 221 204 199 186 189 205 242 175 205 161 146 136 141 155 156 153 152 150 152 151 151 154 158 155 163 165 165 159 147 154
297 308 266 316 356 322 21 321 288 264 232 248 229 220 204 207 211 206 205 202 200 302 178 156 149 144 149 150 146 144 145 147 149 152 154 155 157 157 166 169 165 155 160 156
288 288 267 284 286 296 240 241 257 220 224 198 196 205 203 208 223 223 216 206 203 182 155 160 163 157 154 144 141 144 145 148 151 154 156 158 159 166 162 166 164 164 167 170
232 253 269 300 305 289 289 301 275 240 235 212 222 243 235 218 225 228 226 214 200 192 172 162 166 150 146 141 143 146 147 150 151 154 155 160 164 161 158 156 148 164 170 176